Location: Boiro
(42.6475°N, 8.8834°W)
Time: 09:01:09
(UTC+01:00)

SR - Pass Details

Date: 04 December 2021
Orbit: 583 x 872 km, 66.7° (Epoch: 16 January)

Event Time Altitude Azimuth Distance (km) Brightness Sun altitude
Rises 02:16:08 0° 249° (WSW) 2,959 - -67.0°
Reaches altitude 10° 02:19:02 10° 267° (W) 2,005 - -66.8°
Maximum altitude 02:22:18 20° 314° (NW) 1,444 - -66.4°
Drops below altitude 10° 02:25:28 10° 1° (N) 1,936 - -66.1°
Sets 02:28:13 0° 19° (NNE) 2,822 - -65.8°
